Time,TemperatureF,DewpointF,PressureIn,WindDirection,WindDirectionDegrees,WindSpeedMPH,WindSpeedGustMPH,Humidity,HourlyPrecipIn,Conditions,Clouds,dailyrainin,SoftwareType,DateUTC
2013-01-03 00:14:00,18.4,14.0,30.14,SE,136,1.0,3.0,81,0.00,,,0.00,weatherlink.com 1.10,2013-01-03 05:14:00,
2013-01-03 00:29:00,18.8,14.0,30.13,South,171,0.0,3.0,81,0.00,,,0.00,weatherlink.com 1.10,2013-01-03 05:29:00,
2013-01-03 00:44:00,19.1,14.0,30.12,SSE,162,0.0,2.0,80,0.00,,,0.00,weatherlink.com 1.10,2013-01-03 05:44:00,
2013-01-03 00:59:00,19.2,14.0,30.12,SE,131,0.0,1.0,80,0.00,,,0.00,weatherlink.com 1.10,2013-01-03 05:59:00,
2013-01-03 01:14:00,19.4,14.0,30.11,ESE,115,0.0,1.0,80,0.00,,,0.00,weatherlink.com 1.10,2013-01-03 06:14:00,
2013-01-03 01:29:00,19.5,14.0,30.11,SE,138,0.0,2.0,79,0.00,,,0.00,weatherlink.com 1.10,2013-01-03 06:29:00,
2013-01-03 01:44:00,19.7,14.0,30.11,SE,128,1.0,2.0,79,0.00,,,0.00,weatherlink.com 1.10,2013-01-03 06:44:00,
2013-01-03 01:59:00,19.9,14.0,30.11,ESE,123,1.0,1.0,79,0.00,,,0.00,weatherlink.com 1.10,2013-01-03 06:59:00,
2013-01-03 02:14:00,20.1,14.0,30.11,SSE,153,0.0,0.0,78,0.00,,,0.00,weatherlink.com 1.10,2013-01-03 07:14:00,
2013-01-03 02:29:00,20.2,15.0,30.11,SSW,205,0.0,1.0,79,0.00,,,0.00,weatherlink.com 1.10,2013-01-03 07:29:00,
2013-01-03 02:44:00,20.2,14.0,30.11,SE,132,1.0,3.0,76,0.00,,,0.00,weatherlink.com 1.10,2013-01-03 07:44:00,
2013-01-03 02:59:00,20.2,14.0,30.11,ESE,109,2.0,2.0,76,0.00,,,0.00,weatherlink.com 1.10,2013-01-03 07:59:00,
2013-01-03 03:14:00,20.1,14.0,30.10,WNW,291,0.0,2.0,76,0.00,,,0.00,weatherlink.com 1.10,2013-01-03 08:14:00,
2013-01-03 03:29:00,20.2,14.0,30.10,SSW,192,1.0,2.0,76,0.00,,,0.00,weatherlink.com 1.10,2013-01-03 08:29:00,
2013-01-03 03:44:00,20.1,14.0,30.10,SSW,197,0.0,1.0,78,0.00,,,0.00,weatherlink.com 1.10,2013-01-03 08:44:00,
2013-01-03 03:59:00,20.0,15.0,30.09,SSE,152,0.0,1.0,79,0.00,,,0.00,weatherlink.com 1.10,2013-01-03 08:59:00,
2013-01-03 04:14:00,19.7,15.0,30.09,SSE,166,0.0,1.0,81,0.00,,,0.00,weatherlink.com 1.10,2013-01-03 09:14:00,
2013-01-03 04:29:00,19.8,15.0,30.09,SW,231,0.0,1.0,81,0.00,,,0.00,weatherlink.com 1.10,2013-01-03 09:29:00,
2013-01-03 04:44:00,20.0,15.0,30.08,SE,139,1.0,3.0,79,0.00,,,0.00,weatherlink.com 1.10,2013-01-03 09:44:00,
2013-01-03 04:59:00,20.1,14.0,30.07,ESE,108,0.0,2.0,78,0.00,,,0.00,weatherlink.com 1.10,2013-01-03 09:59:00,
2013-01-03 05:14:00,20.2,14.0,30.07,SE,139,0.0,3.0,78,0.00,,,0.00,weatherlink.com 1.10,2013-01-03 10:14:00,
2013-01-03 05:29:00,20.4,15.0,30.07,SW,226,1.0,2.0,79,0.00,,,0.00,weatherlink.com 1.10,2013-01-03 10:29:00,
2013-01-03 05:44:00,20.4,15.0,30.06,SE,141,1.0,2.0,79,0.00,,,0.00,weatherlink.com 1.10,2013-01-03 10:44:00,
2013-01-03 05:59:00,20.5,16.0,30.06,South,176,0.0,1.0,81,0.00,,,0.00,weatherlink.com 1.10,2013-01-03 10:59:00,
2013-01-03 06:14:00,20.6,16.0,30.06,South,186,0.0,2.0,81,0.00,,,0.00,weatherlink.com 1.10,2013-01-03 11:14:00,
2013-01-03 06:29:00,20.8,16.0,30.06,WSW,237,0.0,1.0,82,0.00,,,0.00,weatherlink.com 1.10,2013-01-03 11:29:00,
2013-01-03 06:44:00,20.9,16.0,30.05,SW,219,0.0,1.0,82,0.00,,,0.00,weatherlink.com 1.10,2013-01-03 11:44:00,
2013-01-03 06:59:00,21.0,16.0,30.05,South,169,1.0,1.0,82,0.00,,,0.00,weatherlink.com 1.10,2013-01-03 11:59:00,
2013-01-03 07:14:00,21.4,17.0,30.05,SSW,207,0.0,2.0,83,0.00,,,0.00,weatherlink.com 1.10,2013-01-03 12:14:00,
2013-01-03 07:30:00,22.0,18.0,30.05,West,266,1.0,3.0,84,0.00,,,0.00,weatherlink.com 1.10,2013-01-03 12:30:00,
2013-01-03 07:45:00,22.5,19.0,30.06,SSW,201,0.0,2.0,85,0.00,,,0.00,weatherlink.com 1.10,2013-01-03 12:45:00,
2013-01-03 08:00:00,22.9,19.0,30.06,WNW,293,1.0,2.0,85,0.00,,,0.00,weatherlink.com 1.10,2013-01-03 13:00:00,
2013-01-03 08:15:00,23.3,20.0,30.06,SW,236,0.0,2.0,85,0.00,,,0.00,weatherlink.com 1.10,2013-01-03 13:15:00,
2013-01-03 08:30:00,23.6,20.0,30.07,WSW,253,0.0,1.0,86,0.00,,,0.00,weatherlink.com 1.10,2013-01-03 13:30:00,
2013-01-03 08:45:00,23.7,20.0,30.06,SSW,211,1.0,2.0,85,0.00,,,0.00,weatherlink.com 1.10,2013-01-03 13:45:00,
2013-01-03 09:00:00,23.7,20.0,30.07,SW,222,0.0,3.0,85,0.00,,,0.00,weatherlink.com 1.10,2013-01-03 14:00:00,
2013-01-03 09:15:00,23.8,20.0,30.07,SW,217,1.0,2.0,85,0.00,,,0.00,weatherlink.com 1.10,2013-01-03 14:15:00,
2013-01-03 09:30:00,23.9,20.0,30.07,SW,214,0.0,1.0,86,0.00,,,0.00,weatherlink.com 1.10,2013-01-03 14:30:00,
2013-01-03 09:45:00,24.0,21.0,30.08,WSW,240,0.0,0.0,87,0.00,,,0.00,weatherlink.com 1.10,2013-01-03 14:45:00,
2013-01-03 10:00:00,24.1,21.0,30.08,WSW,245,0.0,2.0,88,0.00,,,0.00,weatherlink.com 1.10,2013-01-03 15:00:00,
2013-01-03 10:15:00,24.2,22.0,30.09,WSW,248,1.0,2.0,89,0.00,,,0.00,weatherlink.com 1.10,2013-01-03 15:15:00,
2013-01-03 10:30:00,24.3,22.0,30.09,SW,231,0.0,1.0,90,0.00,,,0.00,weatherlink.com 1.10,2013-01-03 15:30:00,
2013-01-03 10:45:00,24.5,22.0,30.10,WSW,253,0.0,0.0,90,0.00,,,0.00,weatherlink.com 1.10,2013-01-03 15:45:00,
2013-01-03 11:00:00,24.8,23.0,30.10,WSW,238,0.0,0.0,91,0.00,,,0.00,weatherlink.com 1.10,2013-01-03 16:00:00,
2013-01-03 11:15:00,25.3,23.0,30.09,WSW,242,0.0,0.0,91,0.00,,,0.00,weatherlink.com 1.10,2013-01-03 16:15:00,
2013-01-03 11:30:00,25.8,24.0,30.09,WSW,237,0.0,0.0,91,0.00,,,0.00,weatherlink.com 1.10,2013-01-03 16:30:00,
2013-01-03 11:45:00,26.3,24.0,30.09,WNW,293,0.0,0.0,91,0.00,,,0.00,weatherlink.com 1.10,2013-01-03 16:45:00,
2013-01-03 12:00:00,26.9,25.0,30.08,WNW,290,0.0,0.0,91,0.00,,,0.00,weatherlink.com 1.10,2013-01-03 17:00:00,
2013-01-03 12:15:00,27.3,25.0,30.07,NW,307,0.0,0.0,91,0.00,,,0.00,weatherlink.com 1.10,2013-01-03 17:15:00,
2013-01-03 12:30:00,28.0,26.0,30.07,WNW,290,2.0,3.0,90,0.00,,,0.00,weatherlink.com 1.10,2013-01-03 17:30:00,
2013-01-03 12:45:00,28.8,26.0,30.07,West,269,1.0,7.0,88,0.00,,,0.00,weatherlink.com 1.10,2013-01-03 17:45:00,
2013-01-03 13:00:00,29.1,25.0,30.07,West,259,2.0,7.0,86,0.00,,,0.00,weatherlink.com 1.10,2013-01-03 18:00:00,
2013-01-03 13:15:00,29.2,26.0,30.07,NW,311,4.0,6.0,86,0.00,,,0.00,weatherlink.com 1.10,2013-01-03 18:15:00,
2013-01-03 13:30:00,29.1,25.0,30.07,WNW,294,4.0,9.0,85,0.00,,,0.00,weatherlink.com 1.10,2013-01-03 18:30:00,
2013-01-03 13:45:00,28.9,25.0,30.07,WNW,302,3.0,6.0,86,0.00,,,0.00,weatherlink.com 1.10,2013-01-03 18:45:00,
2013-01-03 14:00:00,29.0,25.0,30.07,NW,304,3.0,6.0,86,0.00,,,0.00,weatherlink.com 1.10,2013-01-03 19:00:00,
2013-01-03 14:15:00,28.9,25.0,30.08,NW,311,4.0,5.0,86,0.00,,,0.00,weatherlink.com 1.10,2013-01-03 19:15:00,
2013-01-03 15:00:00,28.7,25.0,30.09,WNW,282,3.0,6.0,85,0.00,,,0.00,weatherlink.com 1.10,2013-01-03 20:00:00,
2013-01-03 15:15:00,28.6,25.0,30.09,NW,305,3.0,5.0,86,0.00,,,0.00,weatherlink.com 1.10,2013-01-03 20:15:00,
2013-01-03 15:30:00,28.5,25.0,30.10,NW,311,4.0,8.0,86,0.00,,,0.00,weatherlink.com 1.10,2013-01-03 20:30:00,
2013-01-03 15:45:00,28.5,25.0,30.10,WNW,295,3.0,8.0,86,0.00,,,0.00,weatherlink.com 1.10,2013-01-03 20:45:00,
2013-01-03 16:00:00,28.4,25.0,30.11,NW,319,3.0,6.0,86,0.00,,,0.00,weatherlink.com 1.10,2013-01-03 21:00:00,
2013-01-03 16:15:00,28.4,25.0,30.11,WNW,301,3.0,7.0,85,0.00,,,0.00,weatherlink.com 1.10,2013-01-03 21:15:00,
2013-01-03 16:30:00,28.4,25.0,30.12,WNW,291,2.0,6.0,85,0.00,,,0.00,weatherlink.com 1.10,2013-01-03 21:30:00,
2013-01-03 16:45:00,28.3,24.0,30.13,WNW,295,3.0,5.0,85,0.00,,,0.00,weatherlink.com 1.10,2013-01-03 21:45:00,
2013-01-03 17:00:00,28.4,25.0,30.13,NW,308,1.0,4.0,85,0.00,,,0.00,weatherlink.com 1.10,2013-01-03 22:00:00,
2013-01-03 17:15:00,28.4,25.0,30.14,NW,305,4.0,5.0,85,0.00,,,0.00,weatherlink.com 1.10,2013-01-03 22:15:00,
2013-01-03 17:30:00,28.5,24.0,30.15,WNW,301,2.0,6.0,84,0.00,,,0.00,weatherlink.com 1.10,2013-01-03 22:30:00,
2013-01-03 17:45:00,28.4,25.0,30.15,West,281,2.0,3.0,85,0.00,,,0.00,weatherlink.com 1.10,2013-01-03 22:45:00,
2013-01-03 18:00:00,28.4,25.0,30.16,WNW,301,2.0,2.0,85,0.00,,,0.00,weatherlink.com 1.10,2013-01-03 23:00:00,
2013-01-03 18:15:00,28.5,24.0,30.16,WNW,284,1.0,3.0,84,0.00,,,0.00,weatherlink.com 1.10,2013-01-03 23:15:00,
2013-01-03 18:30:00,28.5,25.0,30.17,WNW,296,1.0,2.0,85,0.00,,,0.00,weatherlink.com 1.10,2013-01-03 23:30:00,
2013-01-03 18:45:00,28.5,25.0,30.17,WSW,257,1.0,1.0,85,0.00,,,0.00,weatherlink.com 1.10,2013-01-03 23:45:00,
2013-01-03 19:00:00,28.7,25.0,30.17,WNW,298,1.0,2.0,84,0.00,,,0.00,weatherlink.com 1.10,2013-01-04 00:00:00,
2013-01-03 19:15:00,28.7,25.0,30.17,WNW,290,1.0,2.0,85,0.00,,,0.00,weatherlink.com 1.10,2013-01-04 00:15:00,
2013-01-03 19:30:00,28.9,24.0,30.17,WNW,295,0.0,3.0,83,0.00,,,0.00,weatherlink.com 1.10,2013-01-04 00:30:00,
2013-01-03 19:46:00,28.8,25.0,30.17,WNW,290,0.0,2.0,84,0.00,,,0.00,weatherlink.com 1.10,2013-01-04 00:46:00,
2013-01-03 20:01:00,28.8,25.0,30.17,WNW,290,0.0,1.0,84,0.00,,,0.00,weatherlink.com 1.10,2013-01-04 01:01:00,
2013-01-03 20:16:00,28.8,25.0,30.17,WNW,290,0.0,2.0,84,0.00,,,0.00,weatherlink.com 1.10,2013-01-04 01:16:00,
2013-01-03 20:31:00,28.8,25.0,30.17,WNW,291,0.0,0.0,85,0.00,,,0.00,weatherlink.com 1.10,2013-01-04 01:31:00,
2013-01-03 20:46:00,28.8,25.0,30.17,WNW,294,0.0,0.0,85,0.00,,,0.00,weatherlink.com 1.10,2013-01-04 01:46:00,
2013-01-03 21:01:00,29.0,25.0,30.17,WNW,291,1.0,2.0,85,0.00,,,0.00,weatherlink.com 1.10,2013-01-04 02:01:00,
2013-01-03 21:16:00,29.1,25.0,30.17,WNW,299,2.0,2.0,85,0.00,,,0.00,weatherlink.com 1.10,2013-01-04 02:16:00,
2013-01-03 21:31:00,29.2,25.0,30.17,WNW,290,2.0,3.0,84,0.00,,,0.00,weatherlink.com 1.10,2013-01-04 02:31:00,
2013-01-03 21:46:00,29.5,25.0,30.17,WNW,286,1.0,7.0,82,0.00,,,0.00,weatherlink.com 1.10,2013-01-04 02:46:00,
2013-01-03 22:01:00,29.5,24.0,30.17,West,274,3.0,6.0,81,0.00,,,0.00,weatherlink.com 1.10,2013-01-04 03:01:00,
2013-01-03 22:16:00,29.4,24.0,30.17,NW,315,4.0,6.0,81,0.00,,,0.00,weatherlink.com 1.10,2013-01-04 03:16:00,
2013-01-03 22:31:00,29.3,24.0,30.16,ENE,70,1.0,6.0,81,0.00,,,0.00,weatherlink.com 1.10,2013-01-04 03:31:00,
2013-01-03 22:46:00,29.2,24.0,30.16,WNW,290,1.0,5.0,82,0.00,,,0.00,weatherlink.com 1.10,2013-01-04 03:46:00,
2013-01-03 23:01:00,29.0,24.0,30.16,WNW,301,2.0,3.0,82,0.00,,,0.00,weatherlink.com 1.10,2013-01-04 04:01:00,
2013-01-03 23:16:00,29.1,25.0,30.15,NW,304,2.0,4.0,83,0.00,,,0.00,weatherlink.com 1.10,2013-01-04 04:16:00,
2013-01-03 23:31:00,29.2,25.0,30.16,West,278,2.0,4.0,83,0.00,,,0.00,weatherlink.com 1.10,2013-01-04 04:31:00,
2013-01-03 23:46:00,29.2,25.0,30.15,West,281,2.0,5.0,83,0.00,,,0.00,weatherlink.com 1.10,2013-01-04 04:46:00,